This is the latest recevied weather packets stored in our database for station/object JA0ZJX-13. If no packets are shown the sender has not sent any weather packets the latest 10 day(s).
| Time | Temp. | Humidity | Pressure | Rain* | Wind** | Luminosity | Snow |
|---|---|---|---|---|---|---|---|
| 1777887219 | 13.33° C | 54% | 1005.4 hPa | 0 mm | - | 5 W/m² | - |
| 1777886613 | 13.33° C | 54% | 1005.4 hPa | 0 mm | - | 18 W/m² | - |
| 1777886022 | 13.33° C | 55% | 1005.5 hPa | 0 mm | - | 32 W/m² | - |
| 1777885411 | 13.89° C | 55% | 1005.5 hPa | 0 mm | - | 39 W/m² | - |
| 1777884817 | 13.89° C | 53% | 1005.4 hPa | 0 mm | - | 54 W/m² | - |
| 1777884210 | 13.89° C | 55% | 1005.6 hPa | 0 mm | - | 74 W/m² | - |
| 1777883618 | 14.44° C | 56% | 1005.7 hPa | 0 mm | - | 114 W/m² | - |
| 1777883008 | 14.44° C | 57% | 1005.1 hPa | 0 mm | - | 53 W/m² | - |
| 1777882421 | 15° C | 55% | 1004.8 hPa | 0 mm | - | 83 W/m² | - |
| 1777881811 | 15.56° C | 56% | 1004.5 hPa | 0 mm | - | 206 W/m² | - |
| 1777881219 | 15.56° C | 54% | 1004.3 hPa | 0 mm | - | 294 W/m² | - |
| 1777880609 | 15.56° C | 56% | 1004.1 hPa | 0 mm | - | 353 W/m² | - |
| 1777880022 | 16.11° C | 54% | 1004.1 hPa | 0 mm | - | 181 W/m² | - |
| 1777879412 | 16.11° C | 54% | 1004.1 hPa | 0 mm | - | 466 W/m² | - |
| 1777878820 | 16.67° C | 53% | 1003.7 hPa | 0 mm | - | 501 W/m² | - |
| 1777878208 | 17.22° C | 53% | 1003.7 hPa | 0 mm | - | 568 W/m² | - |
| 1777877619 | 17.78° C | 51% | 1003.1 hPa | 0 mm | - | 519 W/m² | - |
| 1777877008 | 18.33° C | 51% | 1003.1 hPa | 0 mm | - | 232 W/m² | - |
| 1777876416 | 18.33° C | 49% | 1003 hPa | 0 mm | - | 610 W/m² | - |
| 1777875810 | 18.33° C | 49% | 1002.7 hPa | 0 mm | - | 450 W/m² | - |
| 1777875219 | 18.89° C | 51% | 1002.7 hPa | 0 mm | - | 612 W/m² | - |
| 1777874608 | 19.44° C | 49% | 1002.4 hPa | 0 mm | - | 269 W/m² | - |
| 1777874016 | 19.44° C | 49% | 1001.8 hPa | 0 mm | - | 459 W/m² | - |
| 1777873409 | 20° C | 47% | 1001.7 hPa | 0 mm | - | 322 W/m² | - |
| 1777872818 | 20° C | 51% | 1001.4 hPa | 0 mm | - | 875 W/m² | - |
* Rain latest hour (hover to see other rain measurements)
** Current wind speed in m/s (hover to see current wind gust speed)